CAPE
0 0 0 0 0 0 0 0 0 0 0 0 0 0 0 0 0 44 14 0 746 307 424 694 798 739 929 1183 892 541 254 132 212 254 158 156 212 406 487 415 391 438 348 62 0 0 0 0 0
0 0 0 0 0 0 0 0 0 0 0 0 0 0 0 0 0 0 13 4 888 426 300 587 805 512 607 1011 1150 762 435 247 266 310 238 243 272 405 253 175 259 303 50 0 0 0 0 0 0
0 0 0 0 0 0 0 0 0 0 0 0 0 0 0 0 0 0 0 109 995 618 359 720 727 402 494 898 1245 998 620 480 358 389 365 319 298 349 168 122 178 62 0 0 0 0 0 0 0
0 0 0 0 0 0 0 0 0 0 0 0 0 0 0 0 0 0 14 158 169 908 396 877 535 405 415 590 1145 1159 951 769 568 536 546 413 374 222 58 42 35 0 0 0 0 0 0 0 0
0 0 0 0 0 0 0 0 0 0 0 0 0 0 0 0 0 0 60 173 171 577 515 923 334 579 392 509 931 1182 1147 1124 956 834 802 638 444 95 23 0 0 0 0 0 0 0 0 0 0
0 0 0 0 0 0 0 0 0 0 0 0 0 0 0 0 0 0 91 261 194 327 761 997 239 772 418 475 655 1086 1307 1283 1361 1292 1143 848 543 79 20 0 0 0 0 0 0 0 0 0 0
0 0 0 0 0 0 0 0 0 0 0 0 0 0 0 0 0 0 54 227 360 292 1302 1204 363 731 809 743 606 958 1257 1328 1466 1471 1336 960 602 150 41 0 0 0 0 0 0 0 0 0 0
0 0 0 0 0 0 0 0 0 0 0 0 0 0 0 0 0 0 0 195 283 146 1860 1591 574 582 898 866 896 951 1127 1200 1284 1312 1218 876 518 207 53 0 0 0 0 0 0 0 0 0 0
0 0 0 0 0 0 0 0 0 0 0 0 0 0 0 0 0 0 0 129 220 136 1636 1422 564 559 710 715 1016 816 994 992 1023 1038 937 594 303 167 77 0 0 0 0 0 0 0 0 0 0
0 0 0 0 0 0 0 0 5 0 0 0 0 0 0 0 0 0 0 0 222 154 390 1277 473 589 582 315 795 601 881 997 884 710 595 207 75 92 17 44 0 17 0 0 0 0 0 0 0
0 0 0 0 0 0 0 0 5 18 0 0 0 0 0 0 0 0 0 0 11 184 209 978 534 574 454 255 840 538 541 517 470 339 337 232 112 80 137 116 68 43 38 11 7 0 0 0 0
0 0 0 0 0 0 0 0 0 0 21 0 0 0 0 0 0 0 0 0 0 126 155 845 879 724 486 352 624 736 300 396 404 386 397 671 168 161 276 212 227 223 260 78 12 30 25 20 3
0 0 0 0 0 0 0 0 0 0 0 9 4 0 0 0 0 0 0 0 0 8 122 255 1045 1141 768 906 658 795 241 376 401 567 617 638 944 383 380 679 429 821 575 288 161 61 185 128 124
0 0 0 0 0 0 0 0 0 0 0 0 0 3 0 0 0 0 0 0 0 10 47 147 814 1240 1475 1247 1635 1731 575 279 439 606 785 1020 968 913 733 787 858 529 676 462 362 353 252 231 150
0 0 0 0 0 0 0 0 0 0 0 0 0 0 0 0 0 0 0 0 0 0 7 51 211 641 914 1032 1245 1479 1483 976 645 719 1029 1209 1200 1149 1208 1121 779 659 408 322 269 256 295 213 245
0 0 0 0 0 0 0 0 0 0 0 0 0 0 0 0 0 1 0 0 0 0 0 7 145 493 751 861 805 1372 1251 941 895 926 1167 1731 1455 1585 1638 1239 811 691 645 491 306 216 162 122 154
0 0 0 0 0 0 0 0 0 0 0 0 0 0 0 0 0 0 0 0 0 0 0 0 32 493 766 882 670 443 1152 1027 851 652 861 1175 2021 1545 1147 1538 905 943 640 598 417 272 152 133 339
0 0 0 0 0 0 0 0 0 0 0 0 0 0 0 0 0 1 6 0 0 0 0 0 3 191 1113 853 898 671 583 735 712 396 461 688 1090 1881 1700 1475 1479 1122 683 517 267 134 126 245 216
0 0 0 0 0 0 0 0 0 0 0 0 0 0 0 0 0 13 0 0 0 0 0 0 0 0 409 1659 1021 813 630 451 606 792 299 375 539 1260 1436 1552 898 874 488 397 294 100 43 84 193
0 0 0 0 0 0 0 0 0 0 0 0 0 0 0 0 0 0 0 0 0 0 0 0 36 11 2 923 1231 786 697 1265 869 494 266 255 604 363 608 923 708 392 364 367 222 419 200 219 550
0 0 0 0 0 0 0 0 0 0 0 0 0 0 0 0 0 0 0 0 0 0 0 0 0 10 3 36 267 809 994 1258 1197 1610 1022 572 200 388 532 673 465 737 723 374 704 598 364 126 1190
0 0 0 0 0 0 0 1 0 0 0 0 0 0 0 0 0 0 0 0 0 0 0 0 0 0 0 0 22 52 68 129 178 46 956 2020 1409 526 320 586 687 766 343 969 731 661 320 649 789
0 0 0 0 0 1 0 0 0 0 0 0 0 0 0 0 0 0 0 0 0 0 0 0 0 0 0 1 0 0 54 55 31 230 301 672 1706 1380 609 920 676 339 620 378 684 637 771 1201 1377
0 2 0 0 0 0 0 5 0 0 0 0 1 0 0 0 0 0 0 0 0 0 0 0 0 0 0 0 2 0 0 16 48 42 200 455 1214 1571 1790 1123 882 833 1048 924 788 769 1059 1325 1227
0 4 1 14 20 1 0 1 0 0 0 0 0 0 0 0 0 0 0 0 0 0 0 0 0 0 0 0 14 2 2 36 11 2 2 9 61 308 1299 1455 874 678 677 751 461 339 971 1862 1138
71 2 3 14 16 19 25 0 3 0 0 0 0 0 0 0 0 4 1 6 1 5 1 0 3 0 0 0 0 1 0 13 2 20 9 8 0 15 101 1319 1826 1572 1440 1329 1492 2000 2359 2804 2447
49 0 2 96 48 30 0 0 0 0 0 0 0 0 0 0 0 0 0 0 0 1 0 2 2 0 0 0 8 1 7 29 19 12 8 1 71 174 248 208 153 2621 3287 3302 2987 2609 2936 3314 3388
2 0 30 1 0 0 0 0 0 0 0 1 0 0 0 0 0 0 0 0 0 0 1 0 0 0 4 0 0 0 30 130 122 82 69 31 17 80 186 302 626 1973 3375 3583 3495 3478 3471 3398 3441
62 25 65 88 103 10 0 0 16 0 0 0 0 0 0 0 1 0 0 3 6 3 1 4 13 11 7 8 3 0 0 0 29 23 155 266 214 329 456 490 379 374 1576 2549 3202 3210 3358 3301 3254
97 94 200 2 11 67 53 0 34 0 0 0 0 2 1 0 0 6 7 0 3 5 1 1 1 0 0 3 9 6 17 0 0 0 0 154 372 398 696 532 851 970 1383 1906 2033 2758 3487 3252 3122
CIN
-0 -0 -0 -0 -0 -0 -0 -0 -0 -0 -0 -0 -0 -0 -0 -0 -0 -36 -48 -0 -250 -440 -580 -543 -467 -415 -363 -293 -307 -340 -386 -400 -327 -271 -259 -242 -223 -181 -164 -170 -170 -166 -175 -223 -0 -0 -0 -0 -0
-0 -0 -0 -0 -0 -0 -0 -0 -0 -0 -0 -0 -0 -0 -0 -0 -0 -0 -162 -86 -244 -409 -560 -540 -496 -468 -412 -320 -265 -292 -328 -352 -300 -247 -238 -228 -224 -195 -215 -244 -218 -193 -241 -0 -0 -0 -0 -0 -0
-0 -0 -0 -0 -0 -0 -0 -0 -0 -0 -0 -0 -0 -0 -0 -0 -0 -0 -0 -214 -225 -366 -487 -484 -523 -505 -430 -336 -258 -254 -286 -272 -276 -252 -233 -242 -230 -215 -236 -262 -251 -269 -0 -0 -0 -0 -0 -0 -0
-0 -0 -0 -0 -0 -0 -0 -0 -0 -0 -0 -0 -0 -0 -0 -0 -0 -0 -175 -210 -147 -275 -418 -472 -551 -509 -459 -371 -264 -219 -206 -213 -235 -230 -225 -243 -228 -243 -300 -261 -270 -7 -0 -0 -0 -0 -0 -0 -0
-0 -0 -0 -0 -0 -0 -0 -0 -0 -0 -0 -0 -0 -0 -0 -0 -0 -0 -239 -211 -166 -173 -315 -454 -578 -499 -462 -405 -302 -229 -189 -161 -182 -192 -190 -206 -219 -289 -302 -0 -0 -0 -0 -0 -0 -0 -0 -0 -0
-0 -0 -0 -0 -0 -0 -0 -0 -0 -0 -0 -0 -0 -0 -0 -0 -0 -0 -219 -192 -145 -139 -279 -358 -576 -470 -453 -414 -360 -259 -177 -156 -131 -128 -141 -172 -190 -282 -310 -0 -0 -0 -0 -0 -0 -0 -0 -0 -0
-0 -0 -0 -0 -0 -0 -0 -0 -0 -0 -0 -0 -0 -0 -0 -0 -0 -0 -120 -186 -124 -121 -246 -321 -511 -461 -413 -381 -358 -283 -199 -156 -127 -113 -116 -152 -176 -249 -320 -0 -0 -0 -0 -0 -0 -0 -0 -0 -0
-0 -0 -0 -0 -0 -0 -0 -0 -0 -0 -0 -0 -0 -0 -0 -0 -0 -0 -0 -177 -120 -104 -181 -261 -448 -458 -394 -356 -331 -270 -225 -180 -143 -135 -141 -166 -193 -240 -338 -0 -0 -0 -0 -0 -0 -0 -0 -0 -0
-0 -0 -0 -0 -0 -0 -0 -0 -0 -0 -0 -0 -0 -0 -0 -0 -0 -0 -0 -113 -119 -92 -105 -210 -365 -401 -379 -362 -310 -310 -242 -221 -186 -152 -158 -201 -219 -286 -354 -0 -0 -0 -0 -0 -0 -0 -0 -0 -0
-0 -0 -0 -0 -0 -0 -0 -0 -5 -0 -0 -0 -0 -0 -0 -0 -0 -0 -0 -0 -115 -70 -54 -161 -292 -330 -344 -324 -295 -336 -268 -226 -224 -221 -225 -290 -331 -285 -344 -326 -0 -398 -0 -0 -0 -0 -0 -0 -0
-0 -0 -0 -0 -0 -0 -0 -0 -7 -24 -0 -0 -0 -0 -0 -0 -0 -0 -0 -0 -27 -46 -6 -64 -191 -233 -286 -282 -242 -297 -293 -296 -296 -302 -290 -306 -303 -290 -254 -244 -317 -351 -380 -435 -394 -0 -0 -0 -0
-0 -0 -0 -0 -0 -0 -0 -0 -0 -0 -3 -1 -0 -0 -0 -0 -0 -0 -0 -0 -0 -102 -65 -26 -86 -145 -190 -195 -208 -213 -288 -301 -288 -285 -251 -195 -294 -250 -189 -202 -235 -249 -257 -339 -417 -439 -400 -456 -198
-0 -0 -0 -0 -0 -0 -0 -0 -0 -0 -0 -13 -25 -0 -0 -0 -0 -0 -0 -0 -0 -245 -155 -51 -36 -62 -139 -101 -117 -139 -243 -230 -250 -223 -215 -208 -163 -213 -182 -125 -145 -151 -174 -254 -264 -301 -295 -365 -412
-0 -0 -0 -0 -0 -0 -0 -0 -0 -0 -0 -0 -0 -3 -0 -0 -0 -0 -0 -0 -0 -297 -248 -166 -38 -51 -30 -31 -28 -47 -110 -159 -158 -152 -184 -170 -164 -145 -141 -138 -125 -134 -106 -127 -193 -196 -204 -233 -274
-0 -0 -0 -0 -0 -0 -0 -0 -0 -0 -0 -0 -0 -0 -0 -0 -0 -0 -0 -0 -0 -0 -364 -285 -130 -74 -53 -49 -35 -35 -45 -32 -89 -96 -107 -148 -146 -142 -131 -129 -164 -163 -143 -134 -130 -142 -169 -213 -227
-0 -0 -0 -0 -0 -0 -0 -0 -0 -0 -0 -0 -0 -0 -0 -0 -0 -3 -0 -0 -0 -0 -0 -391 -170 -105 -81 -86 -100 -60 -98 -76 -98 -78 -66 -80 -128 -110 -100 -138 -169 -161 -153 -156 -187 -187 -214 -249 -294
-0 -0 -0 -0 -0 -0 -0 -0 -0 -0 -0 -0 -0 -0 -0 -0 -0 -0 -0 -0 -0 -0 -0 -0 -306 -110 -80 -60 -135 -160 -62 -83 -94 -66 -101 -67 -78 -130 -151 -140 -178 -141 -148 -176 -196 -216 -246 -247 -254
-0 -0 -0 -0 -0 -0 -0 -0 -0 -0 -0 -0 -0 -0 -0 -0 -0 -3 -22 -0 -0 -0 -0 -0 -81 -197 -122 -75 -145 -149 -172 -133 -112 -141 -143 -98 -125 -100 -129 -143 -138 -126 -173 -194 -241 -231 -232 -244 -269
-0 -0 -0 -0 -0 -0 -0 -0 -0 -0 -0 -0 -0 -0 -0 -0 -0 -2 -0 -0 -0 -0 -0 -0 -0 -0 -160 -50 -99 -118 -139 -148 -149 -114 -180 -146 -146 -124 -141 -151 -204 -186 -240 -248 -266 -276 -293 -263 -285
-0 -0 -0 -0 -0 -0 -0 -0 -0 -0 -0 -0 -0 -0 -0 -0 -0 -0 -0 -0 -0 -0 -0 -0 -299 -178 -158 -106 -66 -120 -139 -84 -94 -119 -168 -210 -144 -151 -178 -176 -224 -245 -308 -294 -280 -235 -263 -239 -180
-0 -0 -0 -0 -0 -0 -0 -0 -0 -0 -0 -0 -0 -0 -0 -0 -0 -0 -0 -0 -0 -0 -0 -0 -0 -333 -334 -194 -180 -99 -65 -40 -17 -55 -131 -184 -182 -150 -190 -219 -221 -201 -231 -271 -206 -257 -234 -216 -86
-0 -0 -0 -0 -0 -0 -0 -1 -1 -0 -0 -0 -0 -0 -0 -0 -0 -0 -0 -0 -0 -0 -0 -0 -0 -0 -0 -0 -172 -180 -189 -86 -93 -126 -35 -14 -79 -133 -185 -169 -192 -206 -157 -208 -222 -247 -258 -174 -130
-0 -0 -0 -0 -0 -2 -0 -0 -0 -0 -0 -0 -0 -0 -0 -0 -0 -0 -0 -0 -0 -0 -0 -0 -0 -0 -3 -223 -0 -0 -153 -174 -148 -81 -26 -33 -55 -103 -146 -174 -189 -125 -174 -258 -237 -220 -270 -148 -32
-0 -6 -4 -0 -0 -1 -0 -5 -0 -0 -0 -0 -5 -0 -0 -0 -0 -0 -0 -0 -0 -0 -0 -0 -0 -0 -0 -0 -63 -0 -0 -132 -198 -220 -138 -76 -27 -41 -54 -124 -155 -180 -200 -252 -261 -250 -185 -131 -35
-1 -6 -4 -6 -5 -3 -0 -7 -0 -0 -4 -0 -0 -0 -0 -0 -0 -0 -0 -0 -0 -0 -0 -0 -0 -0 -0 -0 -124 -89 -194 -203 -285 -176 -253 -108 -213 -94 -40 -85 -130 -184 -210 -246 -337 -233 -202 -109 -96
-23 -30 -3 -6 -6 -5 -10 -0 -23 -0 -0 -0 -0 -0 -0 -0 -0 -7 -2 -3 -3 -5 -5 -0 -2 -0 -0 -0 -0 -52 -0 -214 -101 -216 -214 -239 -0 -206 -112 -37 -50 -101 -137 -154 -117 -101 -121 -4 -5
-28 -1 -23 -23 -12 -5 -0 -0 -0 -0 -11 -0 -0 -0 -0 -0 -0 -0 -0 -0 -0 -2 -0 -6 -5 -0 -0 -0 -114 -51 -108 -120 -165 -167 -167 -174 -219 -180 -138 -151 -120 -14 -12 -19 -49 -75 -58 -1 -1
-18 -6 -19 -0 -0 -0 -0 -0 -0 -0 -0 -2 -0 -0 -0 -0 -0 -0 -0 -0 -0 -0 -3 -0 -0 -0 -2 -0 -0 -0 -40 -15 -26 -75 -114 -155 -190 -206 -202 -188 -94 -6 -5 -2 -4 -4 -9 -1 -1
-29 -27 -12 -8 -5 -2 -0 -0 -46 -0 -0 -0 -0 -0 -0 -0 -6 -0 -1 -2 -3 -4 -1 -3 -6 -3 -3 -7 -4 -0 -0 -0 -2 -1 -3 -12 -46 -61 -80 -100 -137 -104 -27 -12 -3 -3 -3 -3 -1
-4 -2 -7 -45 -51 -7 -11 -0 -9 -0 -0 -0 -1 -14 -18 -0 -0 -2 -2 -0 -1 -2 -2 -6 -3 -0 -0 -1 -5 -3 -3 -0 -0 -0 -0 -6 -1 -16 -2 -44 -44 -45 -13 -38 -27 -5 -0 -2 -1
Wind_Speed
27 28 26 25 20 21 29 33 34 25 22 20 17 16 19 19 15 11 11 14 8 8 11 12 14 17 18 21 22 23 24 24 25 25 27 29 29 29 29 29 28 27 27 26 25 24 24 23 22
26 27 26 25 24 29 27 28 35 21 12 16 17 17 20 14 13 8 14 16 7 7 9 9 11 14 16 17 19 21 23 23 23 24 26 27 27 27 27 27 27 26 25 25 24 23 23 22 21
27 27 25 24 27 31 31 21 20 13 14 16 20 19 22 15 14 16 18 17 7 4 4 7 9 12 15 17 17 19 21 22 23 24 25 26 25 25 26 26 25 24 24 23 23 22 21 21 20
29 27 27 30 34 32 38 34 25 22 18 20 21 18 16 15 17 19 20 17 12 3 4 7 9 11 14 17 18 15 18 20 21 22 23 24 24 24 24 24 23 23 22 21 21 20 20 20 19
28 29 35 39 35 39 39 35 22 25 20 14 19 23 18 15 18 22 21 21 15 2 3 7 10 10 13 16 17 15 14 16 17 19 21 21 21 21 21 22 21 21 20 20 19 19 18 18 17
32 31 39 40 40 37 37 32 24 28 29 22 23 23 22 11 18 22 21 23 16 6 5 7 10 9 11 13 16 15 13 13 13 13 15 17 18 17 18 18 19 19 18 17 17 16 16 15 15
32 35 40 41 44 43 33 32 28 31 35 29 29 28 17 16 20 22 19 20 22 6 7 8 9 9 9 9 11 13 12 10 9 9 10 11 13 14 14 14 16 17 16 15 14 14 13 13 12
32 34 43 43 43 43 39 22 25 26 31 28 25 22 17 19 23 24 21 18 20 10 8 9 10 11 10 9 8 8 9 8 6 7 8 9 8 9 10 11 13 13 13 13 12 12 11 10 11
26 39 45 43 42 42 37 36 21 21 25 26 23 27 22 20 22 23 21 17 19 14 9 9 11 13 11 11 9 9 8 7 5 3 5 6 6 7 7 9 10 10 10 10 10 9 9 8 8
26 40 44 44 43 42 41 40 33 21 27 28 27 29 27 21 20 23 24 21 18 20 11 10 12 15 14 12 11 10 9 8 7 5 4 3 5 4 5 7 8 7 7 7 7 7 7 7 7
27 42 38 41 39 41 45 44 39 23 31 31 33 32 27 24 24 26 26 21 23 24 18 14 14 17 17 15 12 12 11 10 9 7 6 4 2 2 3 3 4 5 4 5 5 5 5 4 5
32 34 42 42 42 44 44 42 45 43 33 20 27 29 34 34 25 26 27 27 18 23 25 13 17 17 19 20 16 13 14 12 11 10 8 6 5 3 2 2 2 4 6 5 4 5 4 4 4
31 37 40 42 43 44 43 46 46 46 40 26 15 23 31 33 27 25 25 27 21 21 24 26 17 18 20 24 20 16 15 15 14 13 11 9 7 6 5 5 3 4 4 4 5 4 3 3 2
34 35 41 40 43 43 41 41 43 45 40 38 33 24 22 31 33 26 24 22 21 21 23 23 21 18 20 26 26 23 17 16 17 16 14 12 12 9 11 8 13 10 9 5 2 2 3 2 4
32 38 37 38 35 38 39 46 38 43 40 38 41 34 23 26 30 29 24 23 21 25 24 24 26 25 26 27 33 29 25 21 18 19 16 14 15 16 14 14 13 13 8 5 2 8 6 2 7
32 32 39 35 36 35 32 46 35 36 36 41 40 39 39 28 31 27 23 22 25 27 28 25 25 28 26 27 30 31 31 33 29 26 24 20 20 19 20 18 16 16 12 9 7 10 3 3 7
29 39 37 39 31 33 31 41 38 37 38 37 36 36 32 29 30 28 21 21 23 26 30 29 25 26 27 28 21 27 36 36 35 35 30 27 24 24 21 21 20 21 16 13 13 10 7 10 10
35 34 32 34 32 33 36 37 32 31 32 33 30 31 28 28 28 29 20 16 21 24 28 30 28 27 28 28 29 26 26 34 29 37 39 34 29 28 24 25 24 24 20 17 17 10 11 11 13
36 39 44 41 35 32 28 30 34 31 36 35 25 25 28 29 26 27 19 20 22 23 26 31 28 25 29 26 29 34 34 28 37 38 40 37 32 30 29 27 26 27 25 25 26 21 16 12 12
37 39 41 42 39 38 38 38 34 37 37 35 25 24 22 26 23 24 15 20 24 27 24 32 31 26 23 28 29 30 37 35 35 36 37 38 37 34 34 32 27 30 29 31 30 24 21 20 16
36 37 40 41 38 37 37 42 38 40 37 37 33 25 26 24 22 22 25 19 25 28 27 23 31 31 27 26 25 30 33 38 39 40 32 33 38 41 34 31 32 26 28 33 27 20 20 20 18
40 35 37 36 38 41 34 48 39 38 31 30 29 30 28 26 24 19 19 25 24 30 26 22 30 33 34 33 30 29 31 38 44 45 37 36 35 36 33 27 23 21 32 30 24 20 18 20 22
37 33 35 38 40 38 40 42 45 39 38 29 20 23 24 21 18 19 18 23 25 23 27 23 21 29 30 33 33 34 33 32 32 32 37 40 38 36 27 29 25 19 20 28 20 21 19 19 22
26 32 34 37 39 46 46 40 49 40 37 34 21 18 17 17 15 18 14 15 19 24 25 24 24 23 26 30 32 32 36 35 32 31 33 34 36 34 30 27 29 26 24 24 26 25 20 19 23
24 27 39 40 39 46 42 38 45 35 24 29 10 11 9 14 16 11 14 15 15 18 19 21 21 21 21 23 30 30 29 31 33 35 35 35 33 32 34 31 23 21 22 24 24 24 21 18 17
27 35 29 40 40 40 33 36 31 30 14 13 6 8 9 9 14 14 17 16 18 18 19 19 19 21 23 22 26 30 32 32 35 39 37 36 36 35 37 27 25 23 23 24 23 24 20 19 18
30 38 38 35 41 43 43 37 38 38 29 13 13 12 12 15 16 15 16 19 19 21 21 20 20 25 25 24 25 26 29 32 33 35 36 35 38 38 40 39 37 28 28 25 23 24 24 23 19
27 37 34 22 32 31 35 34 33 29 33 33 13 18 17 14 15 17 20 24 24 23 20 19 22 22 23 26 29 27 26 26 27 30 33 35 39 40 42 42 39 32 27 28 25 26 26 23 20
28 37 42 39 33 37 40 38 22 25 18 19 17 14 13 17 17 22 25 26 25 24 23 22 19 22 24 23 25 27 29 29 30 32 32 34 35 38 40 42 43 39 33 29 27 28 26 23 20
37 36 30 31 34 33 36 41 34 26 20 19 17 15 16 17 23 23 23 24 27 27 27 26 26 26 30 27 27 29 28 30 32 34 35 35 36 37 41 40 42 41 35 29 27 25 21 18 16
Wind_Direction
290 287 288 278 279 277 265 258 244 283 283 278 298 288 264 307 317 297 337 333 50 65 100 99 98 102 106 111 110 108 106 104 103 100 100 103 102 105 104 102 102 99 98 98 97 98 94 93 89
294 289 285 274 270 266 266 263 259 287 298 286 292 288 281 312 338 337 348 330 52 67 102 104 104 106 109 110 111 112 110 107 105 103 104 105 104 105 104 104 103 97 95 96 97 99 96 96 93
288 286 281 274 268 263 256 304 298 317 311 289 283 282 286 296 314 300 312 312 54 47 100 114 116 114 115 115 114 116 114 112 110 108 109 108 107 105 106 107 103 100 97 99 96 96 97 94 92
284 280 275 270 264 262 254 274 284 296 301 292 275 290 290 309 306 307 302 298 302 43 111 135 131 125 124 123 121 117 117 117 115 113 113 111 111 107 107 112 108 105 102 101 98 95 94 92 88
279 275 268 264 267 262 260 274 294 278 297 310 278 272 292 306 308 298 298 287 288 248 162 159 147 137 133 130 128 125 122 119 116 116 115 113 111 108 107 110 109 113 110 106 101 93 89 84 83
272 269 265 264 265 265 264 276 284 276 282 293 288 283 290 323 310 301 295 282 280 244 184 188 161 154 146 142 137 134 129 125 118 112 111 112 114 107 105 103 112 118 113 108 103 92 85 81 80
268 267 265 266 264 263 266 269 272 275 273 281 293 277 281 322 315 301 299 290 272 229 205 209 187 182 168 165 155 144 138 133 124 115 111 107 107 106 100 98 112 119 115 112 102 91 88 80 78
268 269 266 265 265 265 268 273 279 271 274 275 279 286 287 309 313 298 302 294 269 235 218 220 201 197 186 191 179 169 155 149 141 127 119 114 102 98 95 99 108 113 114 113 107 94 86 82 69
270 264 263 264 265 268 272 272 276 280 277 278 272 275 293 310 313 297 303 296 270 251 220 226 219 211 206 201 192 188 186 174 171 164 132 120 113 107 98 108 113 115 110 106 99 97 83 78 65
262 262 262 261 265 269 269 270 276 271 272 277 269 273 285 307 304 297 293 291 277 258 229 225 223 220 216 214 201 208 213 212 197 184 182 157 134 116 112 115 121 112 102 101 97 86 82 63 49
263 262 269 266 271 270 266 267 270 270 271 271 267 267 271 288 299 300 291 298 278 262 256 234 227 227 229 228 217 223 225 225 227 208 196 188 182 151 129 63 93 71 73 68 87 76 68 77 61
269 269 268 270 271 272 272 273 268 270 278 275 270 270 270 280 283 289 293 285 282 267 264 251 234 229 232 240 229 230 232 229 235 229 217 225 215 225 290 19 60 63 43 58 96 70 96 91 71
273 272 272 269 270 273 276 272 273 272 272 282 273 277 272 270 281 284 284 280 284 272 267 264 243 235 233 240 243 238 235 235 239 239 233 238 251 258 273 308 338 357 20 47 72 95 106 106 74
279 278 274 273 271 273 273 277 274 270 274 275 280 276 277 277 275 279 278 280 278 273 270 269 255 242 243 246 253 254 242 240 243 249 242 236 253 263 280 281 302 313 328 352 80 97 32 63 23
284 280 280 275 278 277 276 272 269 271 273 274 272 278 275 276 278 268 270 271 272 263 272 268 262 252 251 250 247 251 256 252 248 251 251 243 254 263 273 283 293 302 313 322 345 353 5 15 1
286 284 278 278 278 277 276 272 273 273 274 272 274 274 276 276 278 273 261 268 267 264 264 266 264 261 255 253 247 249 251 248 253 256 258 256 257 266 273 278 288 295 301 313 324 329 286 300 358
285 279 281 282 281 279 270 273 276 275 276 275 273 280 267 274 280 273 258 261 268 263 259 263 263 263 254 250 247 249 251 249 252 256 258 259 260 262 270 276 284 291 294 303 314 319 308 329 345
284 283 282 283 285 279 274 274 277 279 278 277 274 277 280 277 275 281 261 265 266 267 263 263 263 262 261 253 247 251 254 254 259 260 255 261 261 261 269 275 283 286 291 295 300 305 321 317 329
287 284 281 284 288 296 281 278 279 283 277 274 274 275 277 277 281 281 257 259 269 274 268 262 263 263 258 259 254 249 250 259 259 262 258 260 263 259 266 272 282 283 288 293 296 304 302 291 307
288 286 284 284 283 284 282 280 281 281 280 280 270 269 273 278 276 268 274 263 267 269 279 264 264 265 264 258 263 262 254 252 260 263 256 260 263 261 262 267 281 285 285 290 292 297 297 303 304
287 286 285 284 286 282 281 277 279 281 281 278 275 271 276 275 269 265 259 274 270 271 271 277 261 264 255 267 267 269 268 257 253 258 263 265 265 262 261 269 272 282 287 291 288 285 287 288 299
287 290 286 287 283 277 282 277 280 284 276 280 267 269 274 276 278 263 265 270 276 273 277 281 269 268 267 259 265 270 270 261 257 257 266 272 269 268 268 264 269 272 275 285 288 280 274 285 287
291 292 291 288 283 285 276 279 277 283 281 285 274 270 274 274 277 273 274 275 277 279 276 285 289 271 268 267 258 266 270 272 267 271 256 269 270 270 264 265 263 276 259 274 271 277 281 283 291
302 293 291 287 285 275 274 280 275 280 281 282 264 264 265 272 276 282 277 275 278 280 279 285 284 285 275 271 269 260 266 268 272 271 270 266 270 271 269 267 274 270 267 269 281 289 288 287 288
290 291 284 279 277 275 275 285 277 284 280 295 223 257 261 273 280 272 277 283 277 281 281 285 285 287 287 281 269 267 268 269 271 272 271 272 274 272 273 274 272 268 267 272 278 284 291 275 275
284 287 281 279 279 280 278 281 277 298 280 287 269 242 258 272 285 279 284 289 292 290 291 286 289 290 287 289 281 275 273 277 273 270 270 272 273 276 276 282 275 273 274 276 281 281 284 283 269
294 269 276 289 281 280 274 278 277 268 283 271 268 281 285 287 282 289 292 293 292 294 293 295 291 287 287 287 284 284 282 277 276 274 276 278 275 275 276 277 281 277 275 275 278 282 283 284 279
288 283 278 285 285 280 279 274 277 278 267 264 265 274 278 276 281 285 290 289 290 291 294 293 291 290 286 288 286 286 287 285 283 282 280 279 277 276 275 277 280 280 275 276 277 280 280 279 277
290 267 266 282 282 280 280 274 294 292 290 264 279 281 277 275 282 288 290 291 291 291 289 292 293 292 292 290 289 289 289 288 287 285 285 283 281 278 276 275 275 278 276 278 278 277 277 273 270
283 284 289 279 282 281 276 266 281 291 291 291 282 283 286 291 286 287 293 293 291 291 289 289 291 291 290 291 290 289 290 290 288 286 286 284 283 280 276 276 273 273 275 273 276 276 271 262 257